TimeCDT,TemperatureF,Dew PointF,Humidity,Sea Level PressureIn,VisibilityMPH,Wind Direction,Wind SpeedMPH,Gust SpeedMPH,PrecipitationIn,Events,Conditions,WindDirDegrees,DateUTC
12:34 AM,42.8,35.6,76,30.16,10.0,NE,6.9,-,0.00,,Overcast,40,2013-05-05 05:34:00
12:53 AM,41.0,36.0,82,30.19,10.0,NNE,6.9,-,0.00,,Overcast,30,2013-05-05 05:53:00
1:53 AM,41.0,36.0,82,30.16,10.0,NNE,5.8,-,0.01,,Overcast,20,2013-05-05 06:53:00
2:53 AM,39.9,35.1,83,30.15,10.0,North,4.6,-,0.00,Rain,Light Rain,360,2013-05-05 07:53:00
3:39 AM,39.2,35.6,87,30.14,10.0,North,5.8,-,0.00,,Mostly Cloudy,360,2013-05-05 08:39:00
3:53 AM,39.9,35.1,83,30.16,10.0,North,4.6,-,0.00,,Overcast,360,2013-05-05 08:53:00
4:14 AM,39.2,35.6,87,30.14,10.0,North,8.1,-,N/A,,Overcast,10,2013-05-05 09:14:00
4:53 AM,39.0,35.1,86,30.16,10.0,North,6.9,-,N/A,,Overcast,10,2013-05-05 09:53:00
5:53 AM,39.0,36.0,89,30.17,10.0,North,5.8,-,N/A,,Overcast,350,2013-05-05 10:53:00
6:53 AM,39.0,35.1,86,30.18,10.0,NNE,6.9,-,N/A,,Overcast,20,2013-05-05 11:53:00
7:26 AM,39.2,35.6,87,30.15,10.0,North,9.2,-,N/A,,Overcast,10,2013-05-05 12:26:00
7:53 AM,41.0,35.1,79,30.18,10.0,North,6.9,-,N/A,,Overcast,350,2013-05-05 12:53:00
8:00 AM,41.0,35.6,81,30.16,10.0,North,5.8,-,N/A,,Mostly Cloudy,360,2013-05-05 13:00:00
8:53 AM,44.1,36.0,73,30.18,10.0,NNE,6.9,-,N/A,,Overcast,30,2013-05-05 13:53:00
9:53 AM,44.1,36.0,73,30.18,10.0,North,5.8,-,N/A,,Overcast,10,2013-05-05 14:53:00
10:53 AM,48.0,37.9,68,30.17,10.0,North,4.6,-,N/A,,Overcast,10,2013-05-05 15:53:00
11:40 AM,48.2,39.2,71,30.15,10.0,NNW,5.8,-,N/A,,Scattered Clouds,330,2013-05-05 16:40:00
11:53 AM,50.0,39.9,68,30.17,10.0,Calm,Calm,-,N/A,,Clear,0,2013-05-05 16:53:00
12:53 PM,55.0,41.0,59,30.15,10.0,Variable,5.8,-,N/A,,Clear,0,2013-05-05 17:53:00
1:53 PM,57.0,42.1,57,30.14,10.0,Calm,Calm,-,N/A,,Clear,0,2013-05-05 18:53:00
2:53 PM,59.0,43.0,55,30.12,10.0,WNW,3.5,-,N/A,,Partly Cloudy,290,2013-05-05 19:53:00
3:53 PM,62.1,44.1,52,30.10,10.0,Calm,Calm,-,N/A,,Scattered Clouds,0,2013-05-05 20:53:00
4:53 PM,64.9,45.0,48,30.09,10.0,NW,4.6,-,N/A,,Partly Cloudy,310,2013-05-05 21:53:00
5:53 PM,66.0,46.0,48,30.08,10.0,Calm,Calm,-,N/A,,Clear,0,2013-05-05 22:53:00
6:53 PM,66.0,46.9,50,30.08,10.0,Calm,Calm,-,N/A,,Clear,0,2013-05-05 23:53:00
7:53 PM,64.0,46.0,52,30.08,10.0,Calm,Calm,-,N/A,,Clear,0,2013-05-06 00:53:00
8:53 PM,61.0,46.0,58,30.08,10.0,WNW,4.6,-,N/A,,Clear,300,2013-05-06 01:53:00
9:53 PM,55.9,46.9,72,30.09,10.0,North,3.5,-,N/A,,Clear,360,2013-05-06 02:53:00
10:53 PM,54.0,46.0,75,30.09,10.0,Calm,Calm,-,N/A,,Clear,0,2013-05-06 03:53:00
11:53 PM,53.1,46.0,77,30.09,10.0,NW,4.6,-,N/A,,Clear,320,2013-05-06 04:53:00